Location: Heiligenberg
(48.5381°N, 7.3897°E)
Time: 23:03:09
(UTC+00:00)

Cosmos 1975 Rocket - Pass Details

Date: 26 May 2022
Orbit: 603 x 634 km, 82.5° (Epoch: 02 July)

Event Time Altitude Azimuth Distance (km) Brightness Sun altitude
Exits shadow 00:39:45 31° 156° (SSE) 1,091 3.9 -18.5°
Maximum altitude 00:41:35 55° 94° (E) 760 3.5 -18.4°
Drops below altitude 10° 00:45:57 10° 18° (NNE) 2,022 7.0 -18.2°
Sets 00:48:14 0° 14° (NNE) 2,938 8.2 -18.1°
